Wichita Falls, TX

9:17 AM CDT on June 27, 2017 (GMT -0500)
Sheppard Air Force Base-Wichita Falls Municipal

Weather History for KSPS - December, 2014

Change the Weather History Date:

Wednesday, December 3, 2014

  Actual Average Record
Temperature  
Mean Temperature 49 °F 45 °F  
Max Temperature 58 °F 58 °F 84 °F (2012)
Min Temperature 39 °F 33 °F 21 °F (1945)
Degree Days  
Heating Degree Days 16 20  
Month to date heating degree days 82 58  
Since 1 July heating degree days 594 565  
Moisture  
Dew Point 44 °F    
Average Humidity 85    
Maximum Humidity 100    
Minimum Humidity 70    
Precipitation  
Precipitation T in 0.05 in 1.21 in (1993)
Month to date precipitation T 0.16  
Year to date precipitation 22.82 27.46  
Snow  
Snow 0.00 in 0.10 in - ()
Month to date snowfall 0.0 0.1  
Since 1 July snowfall 0.3 0.4  
Snow Depth 0.00 in    
Sea Level Pressure  
Sea Level Pressure 30.12 in    
Wind  
Wind Speed 9 mph (East)    
Max Wind Speed 15 mph    
Max Gust Speed 17 mph    
Visibility 6 miles    
Events Fog , Rain    
T = Trace of Precipitation, MM = Missing Value Source: NWS Daily Summary

Daily Weather History Graph

Daily Weather History Graph

Search for Another Location

Airport or City:

Trip Planner

Search our weather history database for the weather conditions in past years. The results will help you decide how hot, cold, wet, or windy it might be!

Date:

Astronomy

Dec. 03, 2014 Rise Set
Actual Time 7:22 AM CST 5:24 PM CST
Civil Twilight 6:55 AM CST 5:52 PM CST
Nautical Twilight 6:24 AM CST 6:22 PM CST
Astronomical Twilight 5:54 AM CST 6:53 PM CST
Moon 3:39 PM CST (12/3) 4:19 AM CST (12/3)
Length of Visible Light 10h 56m
Length of Day
10h 01m
Waxing Gibbous, 91% of the Moon is Illuminated
Dec 3
Waxing Gibbous
Dec 6
Full
Dec 14
Last Quarter
Dec 21
New
Dec 28
First Quarter

Hourly Weather History & Observations

Time (CST) Temp. Windchill Dew Point Humidity Pressure Visibility Wind Dir Wind Speed Gust Speed Precip Events Conditions
12:52 AM 39.0 °F 34.8 °F 30.9 °F 73% 30.11 in 10.0 mi ESE 5.8 mph - N/A   Clear
1:52 AM 39.9 °F 34.5 °F 32.0 °F 73% 30.09 in 10.0 mi SE 8.1 mph - N/A   Clear
2:52 AM 42.1 °F 37.1 °F 35.1 °F 76% 30.09 in 10.0 mi SSE 8.1 mph - N/A   Clear
3:52 AM 42.1 °F 37.7 °F 36.0 °F 79% 30.08 in 10.0 mi SE 6.9 mph - N/A   Clear
4:52 AM 41.0 °F 35.8 °F 36.0 °F 82% 30.09 in 10.0 mi SE 8.1 mph - N/A   Clear
5:52 AM 41.0 °F 38.0 °F 37.9 °F 89% 30.08 in 10.0 mi ESE 4.6 mph - N/A   Mostly Cloudy
6:13 AM 42.1 °F 38.4 °F 39.0 °F 89% 30.08 in 10.0 mi SE 5.8 mph - N/A   Mostly Cloudy
6:20 AM 43.0 °F 39.5 °F 39.9 °F 89% 30.08 in 10.0 mi SE 5.8 mph - N/A   Mostly Cloudy
6:52 AM 46.9 °F - 44.1 °F 90% 30.09 in 10.0 mi SE 8.1 mph - N/A   Overcast
7:52 AM 48.0 °F - 45.0 °F 89% 30.09 in 9.0 mi ESE 10.4 mph - N/A   Overcast
8:52 AM 48.9 °F - 45.0 °F 86% 30.13 in 10.0 mi East 10.4 mph - N/A   Overcast
9:52 AM 52.0 °F - 46.9 °F 83% 30.15 in 10.0 mi SE 10.4 mph - N/A   Overcast
10:52 AM 55.9 °F - 48.0 °F 75% 30.15 in 10.0 mi SSE 10.4 mph - N/A   Overcast
11:52 AM 55.9 °F - 48.0 °F 75% 30.14 in 10.0 mi SE 8.1 mph - N/A   Overcast
12:52 PM 57.0 °F - 48.0 °F 72% 30.12 in 10.0 mi East 9.2 mph - N/A   Overcast
1:52 PM 55.9 °F - 48.0 °F 75% 30.11 in 10.0 mi ESE 8.1 mph - N/A   Overcast
2:52 PM 55.0 °F - 48.0 °F 77% 30.11 in 4.0 mi ESE 9.2 mph - N/A   Overcast
3:16 PM 53.1 °F - 50.0 °F 89% 30.11 in 1.5 mi ENE 12.7 mph - 0.00 in   Light Drizzle
3:24 PM 51.1 °F - 48.9 °F 92% 30.10 in 1.5 mi ENE 11.5 mph - 0.00 in   Light Drizzle
3:52 PM 51.1 °F - 48.9 °F 92% 30.11 in 1.0 mi ENE 11.5 mph - 0.00 in   Light Drizzle
4:52 PM 48.9 °F - 46.9 °F 93% 30.12 in 1.5 mi ENE 10.4 mph - 0.00 in   Light Drizzle
5:52 PM 48.0 °F - 46.9 °F 96% 30.13 in 1.5 mi ENE 9.2 mph - 0.00 in   Light Drizzle
5:59 PM 48.0 °F - 46.9 °F 96% 30.13 in 3.0 mi NE 9.2 mph - 0.00 in   Light Drizzle
6:52 PM 46.9 °F - 46.0 °F 97% 30.14 in 4.0 mi NE 11.5 mph - 0.00 in   Light Drizzle
7:52 PM 46.9 °F - 46.0 °F 97% 30.16 in 3.0 mi ENE 10.4 mph - 0.00 in   Overcast
8:02 PM 46.9 °F - 46.0 °F 97% 30.16 in 2.5 mi ENE 10.4 mph - N/A   Overcast
8:21 PM 46.9 °F - 46.0 °F 97% 30.16 in 1.5 mi ENE 9.2 mph - N/A   Overcast
8:52 PM 46.9 °F - 46.0 °F 97% 30.15 in 0.8 mi ENE 8.1 mph - N/A   Mist
9:52 PM 46.9 °F - 46.0 °F 97% 30.15 in 0.5 mi NE 5.8 mph - N/A Fog Fog
10:52 PM 46.9 °F - 46.0 °F 97% 30.15 in 0.2 mi NNE 9.2 mph - N/A Fog Fog
11:52 PM 46.9 °F - 46.0 °F 97% 30.14 in 0.2 mi NE 8.1 mph - N/A Fog Fog